Location: Franzen
(48.6167°N, 15.3833°E)
Time: 13:22:12
(UTC+00:00)

Cosmos 1408 - Pass Details

Date: 22 April 2021
Orbit: 467 x 492 km, 82.6° (Epoch: 16 May)

Event Time Altitude Azimuth Distance (km) Brightness Sun altitude
Rises 18:26:15 0° 347° (NNW) 2,520 6.8 -4.8°
Reaches altitude 10° 18:28:22 10° 344° (NNW) 1,637 5.9 -5.1°
Maximum altitude 18:31:53 62° 264° (W) 531 3.1 -5.6°
Drops below altitude 10° 18:35:23 10° 183° (S) 1,623 5.0 -6.1°
Sets 18:37:28 0° 180° (S) 2,496 5.9 -6.4°
